Regional Weather Roundup
Issued by NWS

Home | Current Version | Previous Version | Graphics & Text | Print | Product List | Glossary On
Versions: 1 2 3 4 5 6 7 8 9 10 11 12 13 14 15 16 17 18 19 20 21 22 23 24 25 26 27 28 29 30 31 32 33 34 35 36 37 38 39 40 41 42 43 44 45 46 47 48 49 50
000
ASUS43 KBIS 280420
RWRND

NORTH DAKOTA REGIONAL WEATHER ROUNDUP
NATIONAL WEATHER SERVICE BISMARCK ND
1100 PM CDT SUN JUL 27 2014

NOTE: "FAIR" INDICATES FEW OR NO CLOUDS BELOW 12,000 FEET WITH NO
SIGNIFICANT WEATHER AND/OR OBSTRUCTIONS TO VISIBILITY.


NDZ001>003-009>011-017-280500-
NORTHWEST NORTH DAKOTA

CITY           SKY/WX    TMP DP  RH WIND       PRES   REMARKS
WILLISTON      CLEAR     63  53  70 E3        30.29R
MINOT          CLEAR     60  52  74 S5        30.28S
MINOT AFB      CLEAR     54  54 100 W1        30.27S
$$

NDZ018>021-031>035-040>046-280500-
SOUTHWEST NORTH DAKOTA

CITY           SKY/WX    TMP DP  RH WIND       PRES   REMARKS
BISMARCK       CLEAR     57  51  80 CALM      30.29R
DICKINSON      CLEAR     57  51  80 E7        30.30R
GARRISON         N/A     55  51  86 CALM      30.29S
HETTINGER ARPT CLEAR     55  50  83 E5        30.32R
$$

NDZ004>008-012>016-024-026-027-054-280500-
NORTHEAST NORTH DAKOTA

CITY           SKY/WX    TMP DP  RH WIND       PRES   REMARKS
GRAND FORKS    CLOUDY    61  57  87 NW3       30.21R
GRND FRKS AFB  CLOUDY    61  57  89 NW6       30.23R
DEVILS LAKE    CLOUDY    57  52  82 N6        30.24F
$$

NDZ022-023-025-028>030-036>039-047>053-280500-
SOUTHEAST NORTH DAKOTA

CITY           SKY/WX    TMP DP  RH WIND       PRES   REMARKS
FARGO          MOCLDY    60  56  86 N6        30.20R
JAMESTOWN      CLOUDY    61  54  77 N7        30.25R
$$



USA.gov is the U.S. government's official web portal to all federal, state and local government web resources and services.